TimeEST,TemperatureF,Dew PointF,Humidity,Sea Level PressureIn,VisibilityMPH,Wind Direction,Wind SpeedMPH,Gust SpeedMPH,PrecipitationIn,Events,Conditions,WindDirDegrees,DateUTC
12:06 AM,33.8,33.8,100,30.41,2.5,Calm,Calm,-,N/A,,Clear,0,2012-12-02 05:06:00
12:08 AM,33.8,33.8,100,30.41,2.0,Calm,Calm,-,N/A,,Clear,0,2012-12-02 05:08:00
12:10 AM,33.8,32.0,93,30.41,1.8,Calm,Calm,-,N/A,,Clear,0,2012-12-02 05:10:00
12:11 AM,33.8,32.0,93,30.41,1.8,Calm,Calm,-,N/A,,Clear,0,2012-12-02 05:11:00
12:12 AM,33.8,32.0,93,30.41,1.5,Calm,Calm,-,N/A,,Clear,0,2012-12-02 05:12:00
12:15 AM,33.8,32.0,93,30.41,1.2,Calm,Calm,-,N/A,,Clear,0,2012-12-02 05:15:00
12:18 AM,33.8,32.0,93,30.41,1.5,Calm,Calm,-,N/A,,Clear,0,2012-12-02 05:18:00
12:21 AM,33.8,32.0,93,30.41,1.8,Calm,Calm,-,N/A,,Clear,0,2012-12-02 05:21:00
12:22 AM,33.8,32.0,93,30.41,2.0,Calm,Calm,-,N/A,,Clear,0,2012-12-02 05:22:00
12:24 AM,33.8,33.8,100,30.41,2.5,Calm,Calm,-,N/A,,Clear,0,2012-12-02 05:24:00
12:34 AM,33.8,32.0,93,30.42,3.0,Calm,Calm,-,N/A,,Clear,0,2012-12-02 05:34:00
12:35 AM,33.8,32.0,93,30.42,3.0,Calm,Calm,-,N/A,,Clear,0,2012-12-02 05:35:00
12:45 AM,33.8,32.0,93,30.42,4.0,Calm,Calm,-,N/A,,Clear,0,2012-12-02 05:45:00
12:55 AM,33.3,32.7,98,30.42,3.0,Calm,Calm,-,N/A,,Clear,0,2012-12-02 05:55:00
1:16 AM,32.0,32.0,100,30.41,2.5,Calm,Calm,-,N/A,,Clear,0,2012-12-02 06:16:00
1:18 AM,32.0,32.0,100,30.41,2.0,Calm,Calm,-,N/A,,Clear,0,2012-12-02 06:18:00
1:22 AM,32.0,32.0,100,30.41,2.0,Calm,Calm,-,N/A,,Clear,0,2012-12-02 06:22:00
1:28 AM,32.0,32.0,100,30.40,2.5,Calm,Calm,-,N/A,,Clear,0,2012-12-02 06:28:00
1:30 AM,32.0,32.0,100,30.41,2.0,Calm,Calm,-,N/A,,Clear,0,2012-12-02 06:30:00
1:36 AM,32.0,32.0,100,30.40,1.8,Calm,Calm,-,N/A,,Clear,0,2012-12-02 06:36:00
1:40 AM,32.0,32.0,100,30.40,1.5,Calm,Calm,-,N/A,,Clear,0,2012-12-02 06:40:00
1:45 AM,32.0,32.0,100,30.40,1.2,Calm,Calm,-,N/A,,Clear,0,2012-12-02 06:45:00
1:50 AM,32.0,32.0,100,30.40,1.0,Calm,Calm,-,N/A,,Clear,0,2012-12-02 06:50:00
1:51 AM,32.0,32.0,100,30.40,1.2,Calm,Calm,-,N/A,,Clear,0,2012-12-02 06:51:00
1:54 AM,32.0,32.0,100,30.40,1.2,Calm,Calm,-,N/A,,Clear,0,2012-12-02 06:54:00
1:55 AM,32.7,32.2,98,30.40,1.5,Calm,Calm,-,N/A,,Clear,0,2012-12-02 06:55:00
1:56 AM,32.0,32.0,100,30.40,1.8,Calm,Calm,-,N/A,,Clear,0,2012-12-02 06:56:00
1:57 AM,32.0,32.0,100,30.40,2.0,Calm,Calm,-,N/A,,Clear,0,2012-12-02 06:57:00
1:58 AM,32.0,32.0,100,30.40,2.5,Calm,Calm,-,N/A,,Clear,0,2012-12-02 06:58:00
2:00 AM,33.8,32.0,93,30.40,3.0,Calm,Calm,-,N/A,,Clear,0,2012-12-02 07:00:00
2:12 AM,32.0,32.0,100,30.40,2.5,Calm,Calm,-,N/A,,Clear,0,2012-12-02 07:12:00
2:13 AM,32.0,32.0,100,30.40,1.8,Calm,Calm,-,N/A,,Clear,0,2012-12-02 07:13:00
2:14 AM,32.0,32.0,100,30.40,1.2,Calm,Calm,-,N/A,,Clear,0,2012-12-02 07:14:00
2:15 AM,32.0,32.0,100,30.40,1.0,Calm,Calm,-,N/A,,Clear,0,2012-12-02 07:15:00
2:20 AM,32.0,30.2,93,30.40,1.0,Calm,Calm,-,N/A,,Clear,0,2012-12-02 07:20:00
2:23 AM,32.0,30.2,93,30.40,1.2,Calm,Calm,-,N/A,,Clear,0,2012-12-02 07:23:00
2:24 AM,32.0,30.2,93,30.40,1.5,Calm,Calm,-,N/A,,Clear,0,2012-12-02 07:24:00
2:25 AM,32.0,30.2,93,30.40,1.8,Calm,Calm,-,N/A,,Clear,0,2012-12-02 07:25:00
2:26 AM,32.0,30.2,93,30.40,2.0,Calm,Calm,-,N/A,,Clear,0,2012-12-02 07:26:00
2:36 AM,32.0,32.0,100,30.40,2.0,Calm,Calm,-,N/A,,Clear,0,2012-12-02 07:36:00
2:41 AM,32.0,32.0,100,30.40,2.5,Calm,Calm,-,N/A,,Clear,0,2012-12-02 07:41:00
2:49 AM,32.0,32.0,100,30.40,4.0,Calm,Calm,-,N/A,,Clear,0,2012-12-02 07:49:00
2:55 AM,32.5,32.4,99,30.40,5.0,Calm,Calm,-,N/A,,Clear,0,2012-12-02 07:55:00
3:06 AM,32.0,32.0,100,30.40,3.0,Calm,Calm,-,N/A,,Clear,0,2012-12-02 08:06:00
3:12 AM,32.0,32.0,100,30.40,2.5,Calm,Calm,-,N/A,,Clear,0,2012-12-02 08:12:00
3:15 AM,32.0,32.0,100,30.40,3.0,Calm,Calm,-,N/A,,Clear,0,2012-12-02 08:15:00
3:36 AM,32.0,30.2,93,30.38,2.5,Calm,Calm,-,N/A,,Clear,0,2012-12-02 08:36:00
3:41 AM,30.2,30.2,100,30.38,2.5,Calm,Calm,-,N/A,,Clear,0,2012-12-02 08:41:00
3:42 AM,30.2,30.2,100,30.38,2.0,Calm,Calm,-,N/A,,Clear,0,2012-12-02 08:42:00
3:55 AM,31.3,30.9,99,30.38,2.5,Calm,Calm,-,N/A,,Clear,0,2012-12-02 08:55:00
3:59 AM,32.0,30.2,93,30.39,3.0,Calm,Calm,-,N/A,,Clear,0,2012-12-02 08:59:00
4:15 AM,32.0,30.2,93,30.38,2.5,Calm,Calm,-,N/A,,Clear,0,2012-12-02 09:15:00
4:18 AM,32.0,30.2,93,30.38,3.0,Calm,Calm,-,N/A,,Clear,0,2012-12-02 09:18:00
4:29 AM,30.2,30.2,100,30.38,2.5,Calm,Calm,-,N/A,,Clear,0,2012-12-02 09:29:00
4:33 AM,30.2,30.2,100,30.38,2.5,Calm,Calm,-,N/A,,Clear,0,2012-12-02 09:33:00
4:34 AM,30.2,30.2,100,30.38,2.0,Calm,Calm,-,N/A,,Clear,0,2012-12-02 09:34:00
4:49 AM,30.2,30.2,100,30.38,2.0,Calm,Calm,-,N/A,,Clear,0,2012-12-02 09:49:00
4:50 AM,30.2,30.2,100,30.38,2.5,Calm,Calm,-,N/A,,Clear,0,2012-12-02 09:50:00
4:54 AM,30.2,30.2,100,30.38,3.0,Calm,Calm,-,N/A,,Clear,0,2012-12-02 09:54:00
4:55 AM,30.9,30.7,99,30.38,3.0,Calm,Calm,-,N/A,,Clear,0,2012-12-02 09:55:00
5:18 AM,30.2,30.2,100,30.38,2.5,Calm,Calm,-,N/A,,Clear,0,2012-12-02 10:18:00
5:21 AM,30.2,30.2,100,30.38,2.0,Calm,Calm,-,N/A,,Clear,0,2012-12-02 10:21:00
5:23 AM,30.2,30.2,100,30.38,2.0,Calm,Calm,-,N/A,,Clear,0,2012-12-02 10:23:00
5:25 AM,30.2,30.2,100,30.38,2.0,Calm,Calm,-,N/A,,Partly Cloudy,0,2012-12-02 10:25:00
5:28 AM,30.2,30.2,100,30.38,2.0,Calm,Calm,-,N/A,,Partly Cloudy,0,2012-12-02 10:28:00
5:30 AM,30.2,30.2,100,30.38,2.5,Calm,Calm,-,N/A,,Scattered Clouds,0,2012-12-02 10:30:00
5:33 AM,30.2,30.2,100,30.38,3.0,Calm,Calm,-,N/A,,Scattered Clouds,0,2012-12-02 10:33:00
5:34 AM,30.2,30.2,100,30.38,3.0,Calm,Calm,-,N/A,,Mostly Cloudy,0,2012-12-02 10:34:00
5:55 AM,30.7,30.6,99,30.38,3.0,Calm,Calm,-,N/A,,Mostly Cloudy,0,2012-12-02 10:55:00
6:01 AM,30.2,30.2,100,30.38,3.0,Calm,Calm,-,N/A,,Mostly Cloudy,0,2012-12-02 11:01:00
6:11 AM,32.0,32.0,100,30.38,5.0,Calm,Calm,-,N/A,,Mostly Cloudy,0,2012-12-02 11:11:00
6:13 AM,32.0,32.0,100,30.39,5.0,Calm,Calm,-,N/A,,Overcast,0,2012-12-02 11:13:00
6:23 AM,32.0,30.2,93,30.39,3.0,Calm,Calm,-,N/A,,Overcast,0,2012-12-02 11:23:00
6:25 AM,32.0,30.2,93,30.39,2.5,Calm,Calm,-,N/A,,Overcast,0,2012-12-02 11:25:00
6:27 AM,32.0,30.2,93,30.39,2.5,Calm,Calm,-,N/A,,Overcast,0,2012-12-02 11:27:00
6:36 AM,32.0,32.0,100,30.39,3.0,Calm,Calm,-,N/A,,Overcast,0,2012-12-02 11:36:00
6:51 AM,32.0,32.0,100,30.38,3.0,Calm,Calm,-,N/A,,Overcast,0,2012-12-02 11:51:00
6:55 AM,31.8,31.5,99,30.39,3.0,Calm,Calm,-,N/A,,Overcast,0,2012-12-02 11:55:00
7:00 AM,32.0,32.0,100,30.39,3.0,Calm,Calm,-,N/A,,Overcast,0,2012-12-02 12:00:00
7:01 AM,32.0,32.0,100,30.39,2.5,Calm,Calm,-,N/A,,Overcast,0,2012-12-02 12:01:00
7:07 AM,32.0,32.0,100,30.39,2.0,Calm,Calm,-,N/A,,Overcast,0,2012-12-02 12:07:00
7:10 AM,32.0,32.0,100,30.39,1.8,Calm,Calm,-,N/A,,Overcast,0,2012-12-02 12:10:00
7:11 AM,32.0,32.0,100,30.39,1.5,Calm,Calm,-,N/A,,Overcast,0,2012-12-02 12:11:00
7:12 AM,32.0,32.0,100,30.39,1.2,Calm,Calm,-,N/A,,Overcast,0,2012-12-02 12:12:00
7:13 AM,32.0,32.0,100,30.39,1.0,Calm,Calm,-,N/A,,Mist,0,2012-12-02 12:13:00
7:14 AM,32.0,32.0,100,30.39,0.8,Calm,Calm,-,N/A,,Mist,0,2012-12-02 12:14:00
7:15 AM,32.0,32.0,100,30.39,0.5,Calm,Calm,-,N/A,Fog,Fog,0,2012-12-02 12:15:00
7:17 AM,32.0,32.0,100,30.39,0.2,Calm,Calm,-,N/A,Fog,Fog,0,2012-12-02 12:17:00
7:19 AM,32.0,32.0,100,30.39,0.2,Calm,Calm,-,N/A,Fog,Fog,0,2012-12-02 12:19:00
7:21 AM,32.0,32.0,100,30.38,0.2,Calm,Calm,-,N/A,Fog,Fog,0,2012-12-02 12:21:00
7:22 AM,32.0,32.0,100,30.38,0.2,Calm,Calm,-,N/A,Fog,Fog,0,2012-12-02 12:22:00
7:23 AM,32.0,32.0,100,30.38,0.2,Calm,Calm,-,N/A,Fog,Fog,0,2012-12-02 12:23:00
7:24 AM,32.0,32.0,100,30.38,0.2,Calm,Calm,-,N/A,Fog,Fog,0,2012-12-02 12:24:00
7:26 AM,32.0,32.0,100,30.38,0.2,Calm,Calm,-,N/A,Fog,Fog,0,2012-12-02 12:26:00
7:46 AM,33.8,33.8,100,30.39,0.2,Calm,Calm,-,N/A,Fog,Fog,0,2012-12-02 12:46:00
7:55 AM,33.8,33.6,99,30.39,0.2,Calm,Calm,-,N/A,Fog,Fog,0,2012-12-02 12:55:00
7:58 AM,33.8,33.8,100,30.39,0.2,Calm,Calm,-,N/A,Fog,Fog,0,2012-12-02 12:58:00
8:09 AM,33.8,33.8,100,30.39,0.2,Calm,Calm,-,N/A,Fog,Fog,0,2012-12-02 13:09:00
8:21 AM,33.8,33.8,100,30.38,0.2,Calm,Calm,-,N/A,Fog,Fog,0,2012-12-02 13:21:00
8:40 AM,35.6,35.6,100,30.38,0.2,SE,3.5,-,N/A,Fog,Fog,140,2012-12-02 13:40:00
8:55 AM,36.9,36.7,99,30.37,0.2,Calm,Calm,-,N/A,Fog,Fog,0,2012-12-02 13:55:00
9:40 AM,39.2,39.2,100,30.36,0.2,Calm,Calm,-,N/A,Fog,Fog,0,2012-12-02 14:40:00
9:45 AM,39.2,39.2,100,30.36,0.2,Calm,Calm,-,N/A,Fog,Fog,0,2012-12-02 14:45:00
9:47 AM,39.2,39.2,100,30.36,0.2,Calm,Calm,-,N/A,Fog,Fog,0,2012-12-02 14:47:00
9:51 AM,39.2,39.2,100,30.36,0.5,Calm,Calm,-,N/A,Fog,Fog,0,2012-12-02 14:51:00
9:54 AM,39.2,39.2,100,30.36,0.5,Calm,Calm,-,N/A,Fog,Fog,0,2012-12-02 14:54:00
9:55 AM,39.4,39.2,99,30.36,0.5,Calm,Calm,-,N/A,Fog,Fog,0,2012-12-02 14:55:00
9:57 AM,39.2,39.2,100,30.36,0.8,Calm,Calm,-,N/A,,Mist,0,2012-12-02 14:57:00
9:59 AM,39.2,39.2,100,30.36,1.0,Calm,Calm,-,N/A,,Mist,0,2012-12-02 14:59:00
10:01 AM,39.2,39.2,100,30.36,1.2,Calm,Calm,-,N/A,,Overcast,0,2012-12-02 15:01:00
10:02 AM,39.2,39.2,100,30.36,1.5,Calm,Calm,-,N/A,,Overcast,0,2012-12-02 15:02:00
10:03 AM,39.2,39.2,100,30.36,1.8,Calm,Calm,-,N/A,,Overcast,0,2012-12-02 15:03:00
10:04 AM,39.2,39.2,100,30.36,2.0,Calm,Calm,-,N/A,,Overcast,0,2012-12-02 15:04:00
10:05 AM,39.2,39.2,100,30.36,2.5,Calm,Calm,-,N/A,,Overcast,0,2012-12-02 15:05:00
10:08 AM,39.2,39.2,100,30.35,3.0,Calm,Calm,-,N/A,,Overcast,0,2012-12-02 15:08:00
10:09 AM,41.0,39.2,93,30.35,3.0,Calm,Calm,-,N/A,,Overcast,0,2012-12-02 15:09:00
10:42 AM,41.0,41.0,100,30.34,5.0,Calm,Calm,-,N/A,,Scattered Clouds,0,2012-12-02 15:42:00
10:55 AM,42.4,42.3,99,30.33,6.0,Calm,Calm,-,N/A,,Partly Cloudy,0,2012-12-02 15:55:00
11:55 AM,46.8,46.4,99,30.29,10.0,SSE,5.8,-,N/A,,Clear,160,2012-12-02 16:55:00
12:55 PM,51.8,42.1,69,30.25,10.0,Variable,6.9,-,N/A,,Clear,0,2012-12-02 17:55:00
1:55 PM,54.7,42.6,64,30.21,10.0,Variable,4.6,-,N/A,,Clear,0,2012-12-02 18:55:00
2:55 PM,56.8,44.1,62,30.18,10.0,SSE,5.8,-,N/A,,Clear,150,2012-12-02 19:55:00
3:55 PM,55.9,44.6,66,30.17,10.0,Calm,Calm,-,N/A,,Clear,0,2012-12-02 20:55:00
4:50 PM,55.4,44.6,67,30.18,10.0,Calm,Calm,-,N/A,Rain,Light Rain,0,2012-12-02 21:50:00
4:55 PM,53.6,45.5,74,30.17,8.0,Calm,Calm,-,0.00,Rain,Light Rain,0,2012-12-02 21:55:00
5:08 PM,51.8,48.2,88,30.17,10.0,SE,5.8,-,N/A,,Partly Cloudy,140,2012-12-02 22:08:00
5:55 PM,51.6,50.5,96,30.17,10.0,Calm,Calm,-,0.00,,Scattered Clouds,0,2012-12-02 22:55:00
6:31 PM,50.0,50.0,100,30.17,9.0,Calm,Calm,-,N/A,Rain,Light Rain,0,2012-12-02 23:31:00
6:41 PM,50.0,50.0,100,30.17,10.0,Calm,Calm,-,N/A,,Mostly Cloudy,0,2012-12-02 23:41:00
6:55 PM,50.0,49.8,99,30.17,10.0,Calm,Calm,-,0.00,,Overcast,0,2012-12-02 23:55:00
7:55 PM,51.1,50.9,99,30.17,10.0,Calm,Calm,-,N/A,,Overcast,0,2012-12-03 00:55:00
8:55 PM,55.0,49.6,82,30.17,10.0,Calm,Calm,-,N/A,,Overcast,0,2012-12-03 01:55:00
9:55 PM,58.6,49.1,71,30.18,10.0,Calm,Calm,-,N/A,,Overcast,0,2012-12-03 02:55:00
10:55 PM,58.3,48.9,71,30.18,10.0,Calm,Calm,-,N/A,,Overcast,0,2012-12-03 03:55:00
11:55 PM,53.2,49.6,88,30.18,10.0,Calm,Calm,-,N/A,,Mostly Cloudy,0,2012-12-03 04:55:00